Location: Benama
(6.6190°N, 10.8427°W)
Time: 14:28:38
(UTC+00:00)

Daily predictions for brighter satellites

Satellite Brightness Start Highest point End
(mag) Time Altitude Azimuth Time Altitude Azimuth Time Altitude Azimuth
BLOCK DM-SL R/B 4.5 18:50:44 10° WSW 18:55:27 54° S 19:10:33 10° E
FengYun 1-2 T 4.2 19:04:30 10° SSE 19:10:01 70° ENE 19:15:29 10° N
Milstar 3 Cent rocket 4.4 19:09:09 10° NW 19:16:47 42° NNE 19:31:31 11° E
Cosmos 1544 Rocket 4.4 19:14:26 10° SSE 19:18:12 29° E 19:21:58 10° NNE
Nadezhda 2 Rocket 4.4 19:12:19 10° N 19:18:24 65° E 19:24:25 10° SSE
Cosmos 1470 4.3 19:18:17 10° SE 19:20:29 15° E 19:22:40 10° ENE
STARLINK-1170 3.7 19:18:06 10° NW 19:21:30 60° SW 19:24:54 10° SSE
Cosmos 2278 Rocket 3.5 19:18:35 10° NNE 19:22:28 19° ENE 19:26:20 10° ESE
Cosmos 1844 4.0 19:17:02 10° NNW 19:22:44 75° WSW 19:28:30 10° S
ARIANE 42L R/B 4.4 19:19:09 10° WSW 19:22:54 40° SSE 19:35:45 12° ESE
Cosmos 1707 3.1 19:19:31 10° N 19:23:22 70° W 19:27:15 10° S
CZ-4 R/B 1.4 19:20:48 10° SSE 19:24:42 57° ENE 19:28:30 10° N
EUTELSAT W3B 4.2 19:26:31 10° WSW 19:28:58 40° SSE 19:35:20 13° E
Cosmos 1809 Rocket 4.4 19:24:03 10° N 19:30:06 68° E 19:36:13 10° SSE
Cosmos 1733 3.0 19:27:33 10° S 19:31:20 78° E 19:35:05 10° N
CSL-04 Debris 4.5 19:27:44 10° SSE 19:32:57 45° ENE 19:38:08 10° N
Cosmos 1758 4.5 19:31:08 10° SE 19:34:20 22° E 19:37:32 10° NE
NOSS 3-3 (A) 3.7 19:30:30 10° SSW 19:35:59 59° ESE 19:41:33 10° NNE
NOSS 3-3 (C) 3.7 19:30:37 10° SSW 19:36:05 58° ESE 19:41:39 10° NE
Cosmos 1271 Rocket 2.5 19:33:31 10° N 19:37:13 69° E 19:40:56 10° SSE
Cosmos 1244 Rocket 4.5 19:31:14 10° N 19:37:33 86° E 19:43:48 10° S
Cosmos 1452 Rocket 3.8 19:33:01 10° N 19:38:02 44° ENE 19:43:02 10° SSE
USA 229 DEB 4.3 19:32:38 10° N 19:39:46 43° ENE 19:46:57 10° SE
USA 229 4.3 19:32:45 10° N 19:39:52 43° ENE 19:47:03 10° SE
Meteor 1-22 Rocket 4.2 19:34:55 10° S 19:40:24 80° W 19:45:42 10° N
Cosmos 1939 Rocket 2.8 19:38:45 10° SSE 19:42:48 78° ENE 19:46:48 10° N
STARLINK-1131 4.3 19:42:13 10° NNW 19:46:00 34° NE 19:47:41 24° E
Cosmos 1745 Rocket 4.2 19:44:03 10° NNE 19:49:58 47° E 19:55:50 10° SSE
Lacrosse 5 3.7 19:45:59 10° WNW 19:50:24 31° WSW 19:54:51 10° S
Ariane H10 4.1 19:43:27 10° WSW 19:50:31 22° SSW 19:53:15 12° SSE
STARLINK-1190 4.1 19:47:04 10° NNW 19:50:58 40° NE 19:52:28 29° E
Cosmos 1943 3.9 19:46:31 10° SSE 19:51:16 28° ESE 19:55:03 14° NE
In-Cosmos 22 4.5 19:46:32 10° NNW 19:51:57 68° W 19:57:16 10° S
CZ-2D R/B 3.3 19:48:20 10° S 19:52:10 81° WSW 19:56:00 10° NNW
Cosmos 1674 2.5 19:52:12 10° N 19:55:51 59° E 19:59:29 10° SSE
H-2A R/B 2.0 19:56:20 10° SW 19:57:06 17° SSW 19:57:06 17° SSW
SL-4 R/B 1.4 19:55:47 10° SW 19:59:20 88° NW 20:00:59 28° NE
HJ-1C 3.7 19:59:41 42° ENE 19:59:41 42° ENE 20:02:35 10° N
CZ-2C R/B 3.9 19:56:26 10° NNE 20:00:52 46° ESE 20:05:14 10° S
Cosmos 2315 Rocket 3.9 19:55:11 10° S 20:01:24 74° E 20:07:40 10° N
KORONAS-FOTON 3.6 19:59:23 10° N 20:03:08 70° E 20:06:10 15° SSE
H-2A R/B 3.0 20:05:15 28° ENE 20:05:15 28° ENE 20:09:10 10° NNE
Meteor 2-15 Rocket 4.4 20:00:40 10° S 20:06:36 55° E 20:12:30 10° NNE
GEOS 3 Rocket 3.7 20:06:09 33° ESE 20:08:01 50° ENE 20:12:55 10° NNW
CSL-04 Rocket 3.8 20:02:44 10° S 20:08:07 74° WSW 20:13:25 10° NNW
Cosmos 967 Rocket 4.4 20:04:25 10° SSW 20:10:45 90° WSW 20:17:11 10° NNE
ATLAS 3B CENTAUR R/B 3.5 20:14:55 10° NNW 20:17:17 13° N 20:17:38 13° NNE
Meteor 2-15 4.4 20:11:25 10° S 20:17:31 84° W 20:23:34 10° N
NOSS 3-1 (C) 4.3 20:11:39 10° NNW 20:20:21 87° WSW 20:29:16 10° SSE
BLOCK DM-SL R/B 4.0 20:20:13 10° WSW 20:24:50 49° S 20:26:38 38° SE
Cosmos 1603 3.8 20:24:45 10° SSW 20:30:25 75° WNW 20:36:03 10° N
DMSP B5D2-2 3.9 20:25:26 10° NNE 20:30:38 71° ESE 20:35:51 10° S
Cosmos 2251 Rocket 3.9 20:26:14 10° SSW 20:31:28 63° WNW 20:36:44 10° N
STARLINK-1162 4.3 20:31:44 10° NW 20:35:38 50° WSW 20:35:38 50° WSW
STARLINK-1129 4.4 20:32:59 10° NW 20:36:42 49° WSW 20:36:42 49° WSW
Ariane H10+ 4.2 20:29:37 10° WSW 20:37:08 34° SSW 20:37:55 33° S
Hubble Space Telescope 2.2 20:33:58 10° SW 20:36:20 32° SW 20:36:20 32° SW
Atlas Centaur 2 2.3 20:39:14 10° NW 20:43:34 53° NW 20:43:34 53° NW
ARGOS 4.4 20:48:38 29° N 20:48:38 29° N 20:51:13 10° N
Cosmos 1709 Rocket 3.8 20:41:13 10° N 20:46:57 78° NNE 20:46:57 78° NNE
GPS 2-17 Rocket1 4.1 20:43:54 10° WNW 20:47:21 43° NW 20:47:21 43° NW
Centaur D AC-29 4.4 20:19:22 10° WNW 21:02:00 29° SW 21:07:50 16° S
ARIANE 5 R/B 4.3 20:59:08 10° W 21:00:50 31° WSW 21:00:50 31° WSW
Cosmos 2278 Rocket 3.8 21:01:25 10° NW 21:06:17 30° WSW 21:08:51 21° SW
Centaur AC-119 4.3 20:56:18 10° WSW 21:07:56 41° NW 21:08:08 41° NNW
Longmarch 3A Rocket 4.3 21:11:06 10° WNW 21:37:45 56° SW 21:37:45 56° SW
ATLAS 5 CENTAUR R/B 4.2 21:57:45 10° WNW 22:39:11 14° ENE 22:48:25 10° E
